MOLNIYA 3-27

Last updated on Nov. 13, 2019, 4:21 a.m. UTC

1 16393U 85117A   19316.42559997  .00000213  00000-0 -13387-1 0  9994
2 16393  64.6657 187.0529 6473339 260.2014 339.1926  2.12398699254069
UTC
Height (km)
Latitude
Longitude
Inclination
Orbital Period
UTC large
Height (km)
Speed (km/s)
/
Latitude / Longitude
Inclination (degrees)
Orbital Period (minutes)
Azimuth
Elevation
Range (km)
Doppler Factor
iOS Compass Heading
iOS Angle

Next 30 passes for location: Hong Kong

Rise time Rise Azimuth (degrees) Set time Set Azimuth (degrees) Duration Max altitude (degrees)

No matching passes for this satellites